Location: Altoona
(40.5167°N, 78.4000°W)
Time: 15:21:53
(UTC-04:00)

NOSS 3-2 (A) - Pass Details

Date: 21 August 2017
Orbit: 872 x 1336 km, 63.4° (Epoch: 21 August)

Event Time Altitude Azimuth Distance (km) Brightness Sun altitude
Rises 23:14:52 0° 323° (NW) 4,025 7.9 -30.6°
Reaches altitude 10° 23:17:29 10° 322° (NW) 3,122 7.0 -30.9°
Maximum altitude 23:25:04 72° 240° (WSW) 1,328 4.0 -31.7°
Enters shadow 23:25:38 70° 209° (SSW) 1,351 4.0 -31.8°
